Location: Bégole
(43.1574°N, 0.3291°E)
Time: 02:04:42
(UTC+00:00)

NOSS 2-1 (C) - Pass Details

Date: 28 January 2023
Orbit: 403 x 1774 km, 63.3° (Epoch: 27 March)

Event Time Altitude Azimuth Distance (km) Brightness Sun altitude
Rises 18:50:04 0° 322° (NW) 2,787 7.4 -19.2°
Reaches altitude 10° 18:52:00 10° 321° (NW) 2,019 6.6 -19.5°
Maximum altitude 18:56:33 79° 235° (SW) 811 4.1 -20.3°
Drops below altitude 10° 19:03:04 10° 150° (SSE) 2,858 6.7 -21.5°
Sets 19:06:13 0° 149° (SSE) 4,049 7.5 -22.1°
